Location: Sawmill Trailhead
(33.5800°N, 116.4497°W)
Time: 23:42:00
(UTC-08:00)

Amateur Radio Satellites - All Passes

Search period start: 27 February 2017 23:12
Search period end: 28 February 2017 23:12
Location: Sawmill Trailhead, 33.5800°N, 116.4497°W

Satellite Date Start Highest point End Downlink Frequencies (MHz)
Time Altitude Azimuth
50 SAT 27 Feb 23:14:49 23:18:13 50° 76° (ENE) 23:21:36 437.505
VELOX 1 27 Feb 23:17:27 23:21:49 89° 78° (ENE) 23:26:13 145.980
DUCHIFAT 1 27 Feb 23:35:42 23:39:59 83° 101° (E) 23:44:14 145.980
EO-79 27 Feb 23:50:06 23:54:16 52° 285° (WNW) 23:58:25 145.935-145.965
AIST 2D 27 Feb 23:54:08 23:56:43 19° 289° (WNW) 23:59:16 435.315
NANOSAT C BR1 28 Feb 00:05:23 00:09:20 37° 287° (WNW) 00:13:15 145.865
PCSat 28 Feb 00:06:29 00:11:30 37° 59° (ENE) 00:16:28 145.827
POLYITAN 1 28 Feb 00:08:53 00:12:42 31° 288° (WNW) 00:16:28 437.675
SRMSAT 28 Feb 00:10:36 00:15:00 21° 182° (S) 00:19:24 437.500
QB50P2 28 Feb 00:12:09 00:15:45 27° 289° (WNW) 00:19:20 145.880/145.840
FO-29 28 Feb 00:13:51 00:18:23 18° 300° (WNW) 00:22:40 435.910
NO-84 28 Feb 00:15:51 00:19:33 30° 235° (SW) 00:23:23 435.350 FM
BUGSAT 1 28 Feb 00:20:43 00:24:59 88° 286° (WNW) 00:29:13 437.445
Gurwin Techsat 1B 28 Feb 00:28:26 00:31:08 14° 93° (E) 00:33:50 435.225
DX 1 28 Feb 00:36:17 00:39:51 25° 263° (W) 00:43:26 434.975-435.025
UKube-1 28 Feb 00:42:03 00:45:50 30° 262° (W) 00:49:39 .
SPROUT 28 Feb 00:42:38 00:44:00 11° 268° (W) 00:45:22 437.525
Oscar 19 28 Feb 00:57:00 01:02:01 54° 101° (E) 01:07:01 437.125/150
RS-15 28 Feb 01:01:30 01:13:20 49° 52° (NE) 01:24:36 29.354- 29.394
ITAMSAT 1 28 Feb 01:40:43 01:41:51 11° 92° (E) 01:42:59 435.822/435.867
AO-7 28 Feb 01:41:03 01:44:04 12° 92° (E) 01:47:05 .
PCSat 28 Feb 01:50:18 01:54:38 25° 254° (WSW) 01:58:57 145.827
MOZHAYETS 4 28 Feb 01:54:07 01:58:05 29° 71° (ENE) 02:02:03
ITUPSAT 1 28 Feb 01:54:52 01:59:41 90° 57° (ENE) 02:04:31 437.325
BEESAT 28 Feb 01:59:25 02:04:12 79° 257° (WSW) 02:09:00 436.000
SRMSAT 28 Feb 02:00:03 02:03:30 16° 192° (SSW) 02:06:59 437.500
Gurwin Techsat 1B 28 Feb 02:06:10 02:11:23 57° 286° (WNW) 02:16:34 435.225
Oscar 19 28 Feb 02:37:59 02:40:50 15° 295° (WNW) 02:43:41 437.125/150
AO-85 28 Feb 02:46:02 02:50:41 73° 118° (ESE) 02:55:02 145.980
CUBESAT XI-V 28 Feb 03:02:07 03:05:46 23° 70° (ENE) 03:09:25 437.345
RS-15 28 Feb 03:14:24 03:25:38 46° 253° (WSW) 03:36:24 29.354- 29.394
ITAMSAT 1 28 Feb 03:16:30 03:21:43 71° 285° (WNW) 03:26:54 435.822/435.867
AO-7 28 Feb 03:29:25 03:37:46 83° 107° (ESE) 03:46:03 .
M-CUBED/EXP-1 PRIME 28 Feb 03:30:29 03:32:32 16° 66° (ENE) 03:34:34 437.505
MOZHAYETS 4 28 Feb 03:31:33 03:35:09 22° 264° (W) 03:38:48
KKS-1 28 Feb 03:38:37 03:43:00 76° 258° (WSW) 03:47:26 437.445
BEESAT 3 28 Feb 03:43:49 03:45:43 13° 108° (ESE) 03:47:38 437.485
STARS 28 Feb 04:03:49 04:08:10 88° 76° (ENE) 04:12:34 437.465
BEESAT 2 28 Feb 04:28:18 04:30:55 17° 110° (ESE) 04:33:33 435.950
AO-85 28 Feb 04:30:18 04:31:27 11° 311° (NW) 04:32:35 145.980
CUBESAT XI-V 28 Feb 04:39:00 04:42:58 28° 263° (W) 04:46:57 437.345
CUTE-I 28 Feb 04:49:25 04:51:54 13° 92° (E) 04:54:21 437.470
M-CUBED/EXP-1 PRIME 28 Feb 05:04:30 05:06:52 19° 258° (WSW) 05:09:14 437.505
DOVE 4 28 Feb 05:14:24 05:18:49 33° 98° (E) 05:23:24 437.250
KAITUO 1B 28 Feb 05:16:01 05:18:41 18° 95° (E) 05:21:21 145.475/437.950
BEESAT 3 28 Feb 05:19:19 05:22:56 37° 303° (WNW) 05:26:37 437.485
AO-7 28 Feb 05:24:07 05:29:31 20° 304° (WNW) 05:34:56 .
XW-2F 28 Feb 05:25:35 05:28:58 30° 98° (E) 05:32:19 145.980 - 146.000
ISS 28 Feb 05:26:12 05:29:18 40° 132° (SE) 05:32:25 437.550
XW-2D 28 Feb 05:32:04 05:35:40 40° 98° (E) 05:39:14 145.860 - 145.880
XW-2B 28 Feb 05:37:08 05:40:49 46° 99° (E) 05:44:27 145.730 - 145.750
SO-50 28 Feb 05:38:59 05:42:58 30° 55° (NE) 05:46:56 436.795
Tancredo 1 28 Feb 05:43:34 05:46:48 74° 136° (SE) 05:50:03 437.200
XW-2C 28 Feb 05:45:50 05:49:37 63° 100° (E) 05:53:22 145.795 - 145.815
NUDT-PHONESAT 28 Feb 05:46:10 05:49:49 48° 99° (E) 05:53:25 437.300
BEESAT 2 28 Feb 06:04:57 06:08:26 29° 304° (NW) 06:11:58 435.950
LilacSat-2 28 Feb 06:06:12 06:09:59 63° 283° (WNW) 06:13:44 437.200
XW-2A 28 Feb 06:09:25 06:11:10 13° 94° (E) 06:12:54 145.665 - 145.685
STRAND 1 28 Feb 06:20:29 06:25:36 77° 75° (ENE) 06:30:45 437.568
CUTE-I 28 Feb 06:26:58 06:32:17 62° 286° (WNW) 06:37:33 437.470
HO-68 28 Feb 06:29:19 06:35:21 29° 97° (E) 06:41:20 435.675
KAITUO 1B 28 Feb 06:49:43 06:52:37 21° 288° (WNW) 06:55:29 145.475/437.950
DOVE 4 28 Feb 06:52:29 06:56:17 23° 289° (WNW) 07:00:13 437.250
SEEDS 28 Feb 06:57:29 07:01:00 26° 96° (E) 07:04:30 437.485
CUBEBUG 2 28 Feb 06:58:58 07:02:28 20° 94° (E) 07:05:53 437.445
XW-2F 28 Feb 07:00:51 07:02:48 14° 291° (WNW) 07:04:44 145.980 - 146.000
ISS 28 Feb 07:03:34 07:05:53 18° 327° (NNW) 07:08:13 437.550
XW-2D 28 Feb 07:08:33 07:09:26 11° 292° (WNW) 07:10:18 145.860 - 145.880
SO-50 28 Feb 07:19:47 07:23:13 22° 250° (WSW) 07:26:38 436.795
Tancredo 1 28 Feb 07:21:56 07:23:24 12° 331° (NNW) 07:24:52 437.200
UWE-3 28 Feb 07:29:03 07:32:56 26° 96° (E) 07:36:44 435.000/436.395/437.385
PRISM 28 Feb 07:35:28 07:37:55 16° 68° (ENE) 07:40:21 437.425
XW-2A 28 Feb 07:41:04 07:43:55 24° 287° (WNW) 07:46:45 145.665 - 145.685
CUTE 1.7 + AOD 2 28 Feb 07:41:41 07:45:46 51° 285° (WNW) 07:49:49 437.475
ZACube-1 28 Feb 07:42:53 07:46:18 21° 95° (E) 07:49:38 437.345
O/OREOS (USA 219) 28 Feb 07:54:44 07:59:20 88° 256° (WSW) 08:03:56 437.305
AAUSAT CUBESAT 2 28 Feb 08:11:47 08:15:53 76° 284° (WNW) 08:19:58 437.432
HO-68 28 Feb 08:16:25 08:23:08 45° 292° (WNW) 08:29:49 435.675
AO-73 28 Feb 08:28:29 08:32:59 67° 100° (E) 08:37:20 145.935
Oscar 11 28 Feb 08:30:57 08:35:13 61° 100° (E) 08:39:27 .
SEEDS 28 Feb 08:33:29 08:36:29 19° 290° (WNW) 08:39:28 437.485
FO-29 28 Feb 08:34:12 08:39:55 26° 63° (ENE) 08:45:56 435.910
CUBEBUG 2 28 Feb 08:34:50 08:39:04 33° 288° (WNW) 08:43:12 437.445
TIGRISAT 28 Feb 08:44:15 08:48:25 38° 72° (ENE) 08:52:40 435.000
UNISAT 6 28 Feb 08:44:55 08:49:09 42° 73° (ENE) 08:53:31 437.425
YUBILEINY 28 Feb 09:03:54 09:12:09 46° 89° (E) 09:20:21 435.215
UWE-3 28 Feb 09:05:31 09:09:13 24° 290° (WNW) 09:12:51 435.000/436.395/437.385
PRISM 28 Feb 09:09:14 09:12:54 32° 262° (W) 09:16:33 437.425
DELFI C3 28 Feb 09:14:30 09:18:22 58° 100° (E) 09:22:14 145.870
ZACube-1 28 Feb 09:18:39 09:22:31 28° 289° (WNW) 09:26:18 437.345
FO-29 28 Feb 10:17:18 10:24:14 59° 260° (W) 10:31:52 435.910
TIGRISAT 28 Feb 10:22:27 10:25:12 16° 267° (W) 10:28:00 435.000
AIST 2D 28 Feb 10:23:24 10:26:56 75° 77° (ENE) 10:30:30 435.315
DUCHIFAT 1 28 Feb 10:23:30 10:27:17 34° 72° (ENE) 10:31:06 145.980
UNISAT 6 28 Feb 10:23:35 10:26:01 14° 267° (W) 10:28:31 437.425
LO-87 28 Feb 10:29:28 10:33:01 53° 100° (E) 10:36:33 145.935 - 145.965
EO-79 28 Feb 10:37:58 10:42:08 64° 76° (ENE) 10:46:21 145.935-145.965
NANOSAT C BR1 28 Feb 10:52:41 10:56:53 90° 158° (SSE) 11:01:09 145.865
SPROUT 28 Feb 10:56:05 10:57:07 11° 92° (E) 10:58:09 437.525
POLYITAN 1 28 Feb 10:56:33 11:00:46 73° 258° (WSW) 11:05:03 437.675
QB50P2 28 Feb 10:59:44 11:03:55 61° 259° (W) 11:08:08 145.880/145.840
ESTCUBE 1 28 Feb 11:01:09 11:05:34 59° 101° (E) 11:09:58 437.505/2401.250
YUBILEINY 28 Feb 11:01:18 11:09:00 33° 285° (WNW) 11:16:43 435.215
BUGSAT 1 28 Feb 11:06:27 11:10:08 34° 73° (ENE) 11:13:52 437.445
VELOX 1 28 Feb 11:12:03 11:15:31 22° 96° (E) 11:18:59 145.980
AO-85 28 Feb 11:22:04 11:24:45 17° 53° (NE) 11:27:28 145.980
Gurwin Techsat 1B 28 Feb 11:45:42 11:48:54 16° 65° (ENE) 11:52:05 435.225
ISS 28 Feb 11:58:32 11:59:38 11° 28° (NNE) 12:00:44 437.550
DUCHIFAT 1 28 Feb 12:00:32 12:03:01 15° 266° (W) 12:05:30 145.980
Oscar 19 28 Feb 12:09:46 12:14:45 52° 73° (ENE) 12:19:44 437.125/150
Tancredo 1 28 Feb 12:14:35 12:16:33 15° 31° (NNE) 12:18:30 437.200
50 SAT 28 Feb 12:16:16 12:19:43 76° 284° (WNW) 12:23:11 437.505
DX 1 28 Feb 12:27:21 12:31:43 73° 102° (ESE) 12:36:04 434.975-435.025
SPROUT 28 Feb 12:29:05 12:33:15 49° 286° (WNW) 12:37:24 437.525
UKube-1 28 Feb 12:32:20 12:36:36 57° 101° (ESE) 12:40:50 .
AO-7 28 Feb 12:36:12 12:40:22 15° 53° (NE) 12:44:32 .
ESTCUBE 1 28 Feb 12:40:47 12:41:49 11° 295° (WNW) 12:42:50 437.505/2401.250
BUGSAT 1 28 Feb 12:43:27 12:45:35 14° 266° (W) 12:47:45 437.445
VELOX 1 28 Feb 12:48:12 12:51:52 26° 289° (WNW) 12:55:32 145.980
ITAMSAT 1 28 Feb 12:54:37 12:56:41 12° 63° (ENE) 12:58:44 435.822/435.867
AO-85 28 Feb 13:01:41 13:05:09 30° 247° (WSW) 13:08:43 145.980
Gurwin Techsat 1B 28 Feb 13:23:10 13:28:21 53° 260° (W) 13:33:33 435.225
ISS 28 Feb 13:33:14 13:36:31 90° 89° (E) 13:39:46 437.550
BEESAT 3 28 Feb 13:39:41 13:43:18 32° 56° (ENE) 13:46:53 437.485
Tancredo 1 28 Feb 13:49:53 13:53:00 50° 227° (SW) 13:56:06 437.200
Oscar 19 28 Feb 13:51:32 13:54:18 15° 267° (W) 13:57:05 437.125/150
NO-84 28 Feb 13:55:33 13:56:59 13° 121° (ESE) 13:58:28 435.350 FM
ITUPSAT 1 28 Feb 13:59:46 14:04:01 31° 98° (E) 14:08:14 437.325
BEESAT 28 Feb 14:03:47 14:08:10 35° 98° (E) 14:12:31 436.000
UKube-1 28 Feb 14:11:16 14:12:05 10° 295° (WNW) 14:12:53 .
AO-7 28 Feb 14:23:27 14:31:48 79° 71° (ENE) 14:40:10 .
BEESAT 2 28 Feb 14:25:50 14:29:41 41° 58° (ENE) 14:33:30 435.950
ITAMSAT 1 28 Feb 14:30:18 14:35:28 70° 257° (WSW) 14:40:41 435.822/435.867
PCSat 28 Feb 14:43:31 14:48:53 77° 115° (ESE) 14:54:19 145.827
BEESAT 3 28 Feb 15:18:03 15:20:37 17° 251° (WSW) 15:23:10 437.485
RS-15 28 Feb 15:19:03 15:29:53 45° 107° (ESE) 15:41:07 29.354- 29.394
MOZHAYETS 4 28 Feb 15:29:21 15:33:55 70° 284° (WNW) 15:38:27
NO-84 28 Feb 15:31:29 15:34:15 31° 318° (NW) 15:37:15 435.350 FM
KKS-1 28 Feb 15:33:51 15:37:40 27° 97° (E) 15:41:29 437.445
ITUPSAT 1 28 Feb 15:37:57 15:41:37 22° 292° (WNW) 15:45:16 437.325
BEESAT 28 Feb 15:42:15 15:45:39 20° 292° (WNW) 15:49:02 436.000
STARS 28 Feb 15:57:48 16:01:13 21° 96° (E) 16:04:37 437.465
BEESAT 2 28 Feb 16:05:13 16:07:02 13° 252° (WSW) 16:08:51 435.950
CUTE-I 28 Feb 16:07:19 16:10:26 16° 65° (ENE) 16:13:33 437.470
XW-2D 28 Feb 16:11:20 16:12:50 12° 68° (ENE) 16:14:20 145.860 - 145.880
XW-2B 28 Feb 16:16:02 16:17:56 13° 69° (ENE) 16:19:50 145.730 - 145.750
DOVE 4 28 Feb 16:17:32 16:20:16 17° 69° (ENE) 16:23:02 437.250
AO-7 28 Feb 16:19:56 16:25:12 18° 266° (W) 16:30:28 .
NUDT-PHONESAT 28 Feb 16:23:20 16:25:07 13° 69° (ENE) 16:26:54 437.300
XW-2C 28 Feb 16:24:06 16:26:40 17° 70° (ENE) 16:29:15 145.795 - 145.815
PCSat 28 Feb 16:30:09 16:32:52 14° 311° (NW) 16:35:37 145.827
CUBESAT XI-V 28 Feb 16:38:37 16:43:13 83° 283° (WNW) 16:47:48 437.345
LilacSat-2 28 Feb 16:43:59 16:47:28 32° 73° (ENE) 16:50:57 437.200
M-CUBED/EXP-1 PRIME 28 Feb 16:44:46 16:48:18 29° 103° (ESE) 16:52:02 437.505
HO-68 28 Feb 16:56:26 17:00:01 15° 58° (ENE) 17:03:34 435.675
KKS-1 28 Feb 17:10:36 17:14:03 22° 291° (WNW) 17:17:29 437.445
KAITUO 1B 28 Feb 17:24:36 17:28:24 89° 239° (WSW) 17:32:14 145.475/437.950
RS-15 28 Feb 17:30:40 17:42:07 51° 307° (NW) 17:54:04 29.354- 29.394
STARS 28 Feb 17:33:45 17:37:29 27° 289° (WNW) 17:41:13 437.465
XW-2F 28 Feb 17:35:51 17:39:35 50° 261° (W) 17:43:20 145.980 - 146.000
XW-2D 28 Feb 17:43:04 17:46:37 37° 261° (W) 17:50:14 145.860 - 145.880
CUTE-I 28 Feb 17:44:44 17:49:56 56° 259° (W) 17:55:12 437.470
SEEDS 28 Feb 17:47:08 17:48:38 12° 67° (ENE) 17:50:08 437.485
XW-2B 28 Feb 17:48:19 17:51:48 33° 262° (W) 17:55:18 145.730 - 145.750
DOVE 4 28 Feb 17:54:10 17:57:44 28° 263° (W) 18:01:21 437.250
NUDT-PHONESAT 28 Feb 17:55:19 17:58:43 32° 262° (W) 18:02:08 437.300
CUBEBUG 2 28 Feb 17:55:37 17:56:22 10° 65° (ENE) 17:57:06 437.445
XW-2C 28 Feb 17:57:27 18:00:39 25° 264° (W) 18:03:53 145.795 - 145.815
XW-2A 28 Feb 18:07:50 18:11:07 48° 76° (ENE) 18:14:26 145.665 - 145.685
M-CUBED/EXP-1 PRIME 28 Feb 18:19:42 18:22:33 19° 294° (WNW) 18:25:33 437.505
LilacSat-2 28 Feb 18:19:54 18:21:48 13° 267° (W) 18:23:42 437.200
UWE-3 28 Feb 18:23:17 18:25:32 14° 66° (ENE) 18:27:49 435.000/436.395/437.385
CUTE 1.7 + AOD 2 28 Feb 18:29:41 18:33:55 63° 76° (ENE) 18:38:09 437.475
STRAND 1 28 Feb 18:35:22 18:40:06 36° 98° (E) 18:44:47 437.568
ZACube-1 28 Feb 18:36:49 18:37:55 11° 65° (ENE) 18:39:01 437.345
HO-68 28 Feb 18:39:32 18:46:44 90° 62° (ENE) 18:53:56 435.675
AAUSAT CUBESAT 2 28 Feb 18:57:42 19:01:33 39° 74° (ENE) 19:05:25 437.432
JUGNU 28 Feb 19:14:35 19:18:22 18° 171° (S) 19:22:10 437.505
SEEDS 28 Feb 19:19:46 19:23:51 47° 261° (W) 19:27:56 437.485
AO-73 28 Feb 19:19:46 19:23:42 31° 72° (ENE) 19:27:42 145.935
YUBILEINY 28 Feb 19:20:45 19:26:04 17° 68° (ENE) 19:31:20 435.215
Oscar 11 28 Feb 19:21:53 19:25:35 28° 72° (ENE) 19:29:17 .
CUBEBUG 2 28 Feb 19:27:56 19:32:18 63° 259° (W) 19:36:53 437.445
SO-50 28 Feb 19:49:27 19:53:19 26° 111° (ESE) 19:57:09 436.795
RS-15 28 Feb 19:51:42 19:58:42 16° 336° (NNW) 20:05:48 29.354- 29.394
DELFI C3 28 Feb 19:56:50 19:59:38 19° 71° (ENE) 20:02:28 145.870
UWE-3 28 Feb 19:57:12 20:01:29 47° 261° (W) 20:05:56 435.000/436.395/437.385
ZACube-1 28 Feb 20:09:11 20:13:35 60° 260° (W) 20:18:06 437.345
STRAND 1 28 Feb 20:15:06 20:18:59 22° 292° (WNW) 20:22:52 437.568
SRMSAT 28 Feb 20:23:04 20:25:01 12° 164° (SSE) 20:26:58 437.500
O/OREOS (USA 219) 28 Feb 20:25:28 20:28:21 17° 100° (E) 20:31:15 437.305
HO-68 28 Feb 20:32:26 20:35:09 12° 269° (W) 20:37:51 435.675
AAUSAT CUBESAT 2 28 Feb 20:35:14 20:37:07 13° 267° (W) 20:39:01 437.432
TIGRISAT 28 Feb 20:42:04 20:43:33 11° 91° (E) 20:45:01 435.000
UNISAT 6 28 Feb 20:42:27 20:44:32 13° 92° (E) 20:46:35 437.425
PRISM 28 Feb 20:54:01 20:57:54 42° 99° (E) 21:01:47 437.425
AO-73 28 Feb 20:56:44 20:59:56 19° 266° (W) 21:03:11 145.935
Oscar 11 28 Feb 20:58:26 21:01:39 20° 265° (W) 21:04:53 .
JUGNU 28 Feb 21:02:29 21:06:43 21° 181° (S) 21:10:57 437.505
LO-87 28 Feb 21:03:52 21:05:09 12° 69° (ENE) 21:06:27 145.935 - 145.965
YUBILEINY 28 Feb 21:15:04 21:23:48 82° 265° (W) 21:32:28 435.215
SO-50 28 Feb 21:29:34 21:33:39 29° 305° (NW) 21:37:41 436.795
DELFI C3 28 Feb 21:31:01 21:34:15 24° 264° (W) 21:37:28 145.870
FO-29 28 Feb 21:32:58 21:39:06 29° 93° (E) 21:44:39 435.910
ESTCUBE 1 28 Feb 21:56:44 22:00:45 33° 72° (ENE) 22:04:47 437.505/2401.250
O/OREOS (USA 219) 28 Feb 22:03:21 22:07:25 34° 295° (WNW) 22:11:31 437.305
VELOX 1 28 Feb 22:06:59 22:08:52 13° 66° (ENE) 22:10:45 145.980
NO-84 28 Feb 22:08:01 22:11:27 25° 41° (NE) 22:15:04 435.350 FM
SRMSAT 28 Feb 22:09:20 22:13:29 19° 173° (S) 22:17:38 437.500
RS-15 28 Feb 22:13:36 22:19:09 14° 15° (NNE) 22:24:40 29.354- 29.394
TIGRISAT 28 Feb 22:15:57 22:20:31 55° 285° (WNW) 22:25:00 435.000
UNISAT 6 28 Feb 22:16:57 22:21:28 49° 286° (WNW) 22:25:54 437.425
EO-79 28 Feb 22:28:06 22:30:26 14° 94° (E) 22:32:45 145.935-145.965
PRISM 28 Feb 22:31:05 22:32:46 12° 293° (WNW) 22:34:29 437.425
LO-87 28 Feb 22:35:07 22:38:16 30° 262° (W) 22:41:27 145.935 - 145.965
NANOSAT C BR1 28 Feb 22:41:49 22:44:55 19° 95° (E) 22:47:59 145.865
POLYITAN 1 28 Feb 22:45:54 22:49:24 24° 96° (E) 22:52:52 437.675
50 SAT 28 Feb 22:46:59 22:49:34 20° 72° (ENE) 22:52:09 437.505
QB50P2 28 Feb 22:48:52 22:52:35 28° 97° (E) 22:56:16 145.880/145.840
JUGNU 28 Feb 22:51:41 22:55:03 16° 191° (SSW) 22:58:25 437.505
